"Pseudo-MPEC" for P1109tj

Created 2020 May 27 23:07:07 UT using Find_Orb

Click here for an explanation of pseudo-MPECs

 
 Astrometry: 
     P1109tj  C2020 05 14;aaZ[K[Xk\7d%lq/XY$'UKW;Ad!D]p_VX?kAstrometry]Tk;y'RF51
     P1109tj  C2020 05 14c,yZp1mN8#ou3t?qjXMHx_RcRk-;w,PG=wvUP%?K89D/)6,.k-rFF51
     P1109tj  C2020 05 149=-.nm^0\l?6BxUG7HkF,G78E]/q]HhjV]redacted;7oS!+EAAAF51
     P1109tj  C2020 05 14?wh0y3W+ZHw\m[E?rG-=$DTMwVXvQSqJ*9[*L85a:3w-HclickCLF51
     P1109tj  C2020 05 18@j4]HXlu0H-,yahereXIkq*uDve_6R\x%$tJl2rK$H[LUA%pyNK3F51
     P1109tj  C2020 05 18kIcV.T.j,.p0]@#ol(s:=yJ^$@8,\=?Nf]^tkmdwU4a8.a!FZocYF51
     P1109tj  C2020 05 18?7:nDv1=$w=Kkd5Bs$for*f2HMgob]2Aexplanationh3\WmGtKDF51

Station data:
(F51) Pan-STARRS 1, Haleakala  (N20.707235 W156.255910)  US/Hawaii.
   Observers N. Primak, A. Schultz, S. Watters, J. Thiel, T. Goggia. Measurer
   PS1 Science Consortium. 1.8-m Ritchey-Chrétien + CCD.

Orbital elements:  P1109tj
   Perihelion 2020 May 22.376104 +/- 45.8 TT =  9:01:35 (JD 2458991.876104)
Epoch 2020 May 18.0 TT = JDT 2458987.5   Earth MOID: 0.5469   Ma: 0.0367
M 358.92402417 +/- 9                (J2000 ecliptic)          AutoNEOCP
n   0.24587530 +/- 0.121            Peri.  223.80836 +/- 42
a   2.52343876 +/- 0.826            Node    12.46747 +/- 10
e   0.3958820 +/- 0.165             Incl.   13.60506 +/- 4.5
P   4.01                   H 21.1   G  0.15   U 11.3  SR
q 1.52445470 +/- 0.149    Q 3.52242281 +/- 3.2
From 7 observations 2020 May 14-18; mean residual 0".24
Residuals in arcseconds: 
200514 F51  .13+  .45+    200514 F51  .01-  .19-    200518 F51  .13+  .56+    
200514 F51  .03-  .03-    200518 F51  .08-  .39-    
200514 F51  .09-  .23-    200518 F51  .05-  .16-    

Ephemerides (geocentric):
Date (UTC) HH   RA              Dec         delta   r     elong  mag " sig PA
---- -- -- --  -------------   -----------  ------ ------ -----  --- ---- ---
2020 05 27 23  14 01 28.683   -41 14 49.26  .58088 1.5252 144.8 22.0  665 130
2020 05 28 00  14 01 27.906   -41 15 08.66  .58100 1.5253 144.8 22.0  669 130
2020 05 28 01  14 01 27.134   -41 15 28.03  .58113 1.5253 144.7 22.0  673 130
2020 05 28 02  14 01 26.369   -41 15 47.36  .58126 1.5253 144.7 22.0  678 130
2020 05 28 03  14 01 25.610   -41 16 06.66  .58139 1.5253 144.7 22.0  682 130
2020 05 28 04  14 01 24.857   -41 16 25.92  .58152 1.5253 144.6 22.0  686 130
2020 05 28 05  14 01 24.110   -41 16 45.14  .58165 1.5253 144.6 22.0  690 130
2020 05 28 06  14 01 23.370   -41 17 04.32  .58177 1.5253 144.6 22.0  694 130
2020 05 28 07  14 01 22.635   -41 17 23.46  .58190 1.5253 144.6 22.0  699 130
2020 05 28 08  14 01 21.907   -41 17 42.57  .58203 1.5253 144.5 22.0  703 130
2020 05 28 09  14 01 21.186   -41 18 01.65  .58216 1.5254 144.5 22.0  707 130
2020 05 28 10  14 01 20.470   -41 18 20.68  .58229 1.5254 144.5 22.0  711 130
2020 05 28 11  14 01 19.761   -41 18 39.68  .58242 1.5254 144.4 22.0  716 130
2020 05 28 12  14 01 19.057   -41 18 58.64  .58255 1.5254 144.4 22.0  720 130
2020 05 28 13  14 01 18.361   -41 19 17.57  .58268 1.5254 144.4 22.0  724 130
2020 05 28 14  14 01 17.670   -41 19 36.46  .58282 1.5254 144.4 22.0  728 130
2020 05 28 15  14 01 16.986   -41 19 55.31  .58295 1.5254 144.3 22.0  733 130
2020 05 28 16  14 01 16.307   -41 20 14.13  .58308 1.5255 144.3 22.0  737 130
2020 05 28 17  14 01 15.635   -41 20 32.91  .58321 1.5255 144.3 22.0  741 130
2020 05 28 18  14 01 14.970   -41 20 51.65  .58334 1.5255 144.2 22.0  746 130
2020 05 28 19  14 01 14.310   -41 21 10.36  .58347 1.5255 144.2 22.0  750 130
2020 05 28 20  14 01 13.657   -41 21 29.03  .58360 1.5255 144.2 22.0  754 130
2020 05 28 21  14 01 13.011   -41 21 47.66  .58374 1.5255 144.1 22.0  759 130
2020 05 28 22  14 01 12.370   -41 22 06.26  .58387 1.5255 144.1 22.0  763 130
2020 05 28 23  14 01 11.736   -41 22 24.83  .58400 1.5255 144.1 22.0  767 130
2020 05 29 00  14 01 11.108   -41 22 43.35  .58413 1.5256 144.1 22.0  772 130
2020 05 29 01  14 01 10.486   -41 23 01.85  .58427 1.5256 144.0 22.0  776 130
2020 05 29 02  14 01 09.871   -41 23 20.30  .58440 1.5256 144.0 22.0  780 130
2020 05 29 03  14 01 09.262   -41 23 38.72  .58453 1.5256 144.0 22.0  785 130
2020 05 29 04  14 01 08.659   -41 23 57.11  .58467 1.5256 143.9 22.0  789 130
2020 05 29 05  14 01 08.062   -41 24 15.45  .58480 1.5256 143.9 22.0  794 130
2020 05 29 06  14 01 07.472   -41 24 33.77  .58494 1.5256 143.9 22.0  798 130
2020 05 29 07  14 01 06.888   -41 24 52.05  .58507 1.5257 143.9 22.0  802 130
2020 05 29 08  14 01 06.311   -41 25 10.29  .58520 1.5257 143.8 22.0  807 130
2020 05 29 09  14 01 05.739   -41 25 28.49  .58534 1.5257 143.8 22.0  811 130
2020 05 29 10  14 01 05.174   -41 25 46.67  .58547 1.5257 143.8 22.0  816 130
2020 05 29 11  14 01 04.616   -41 26 04.80  .58561 1.5257 143.7 22.0  820 130
2020 05 29 12  14 01 04.063   -41 26 22.90  .58574 1.5257 143.7 22.0  824 130
2020 05 29 13  14 01 03.517   -41 26 40.97  .58588 1.5257 143.7 22.0  829 130
2020 05 29 14  14 01 02.978   -41 26 59.00  .58602 1.5258 143.7 22.0  833 130
2020 05 29 15  14 01 02.444   -41 27 17.00  .58615 1.5258 143.6 22.0  838 130
2020 05 29 16  14 01 01.917   -41 27 34.96  .58629 1.5258 143.6 22.0  842 130
2020 05 29 17  14 01 01.397   -41 27 52.88  .58642 1.5258 143.6 22.0  847 130
2020 05 29 18  14 01 00.883   -41 28 10.77  .58656 1.5258 143.5 22.0  851 130
2020 05 29 19  14 01 00.375   -41 28 28.63  .58670 1.5258 143.5 22.0  855 130
2020 05 29 20  14 00 59.873   -41 28 46.45  .58683 1.5259 143.5 22.0  860 130
2020 05 29 21  14 00 59.378   -41 29 04.24  .58697 1.5259 143.5 22.0  864 130
2020 05 29 22  14 00 58.889   -41 29 21.99  .58711 1.5259 143.4 22.0  869 130